Home   Weather   Bamyan   Past weeks

Flag for Afghanistan Past Weather in Bamyan, Afghanistan — Yesterday and Last 2 Weeks

Now
77 °F

Sunny.


Feels Like: 79 °F
Forecast: 48 / 64 °F
Wind: No wind

Location: Termez Airport

Current Time: Jul 27, 2017 at 7:18:11 am

Latest Report: Jul 27, 2017 at 6:30 am


Visibility: 10 mi

Pressure: 29.53 "Hg (22.19 "Hg at 2492m altitude)

Humidity: 57%

Dew Point: 61 °F

Location of BamyanLocation

Past Weather in Bamyan — Graph

°F

Bamyan Temperature Yesterday

Maximum temperature yesterday: 113 °F (at 7:30 pm)
Minimum temperature yesterday: 70 °F (at 5:00 am)
Average temperature yesterday: 90 °F

High & Low Weather Summary for the Past Weeks

 TemperatureHumidityPressure
High113 °F (Jul 26, 7:30 pm)73% (Jul 15, 3:00 am)29.86 "Hg (Jul 15, 3:00 am)
Low68 °F (Jul 16, 3:30 am)8% (Jul 25, 4:30 pm)29.45 "Hg (Jul 25, 4:00 pm)
Average86 °F28%29.65 "Hg
* Reported Jul 12 6:00 am — Jul 27 6:00 am, Bamyan. Weather by CustomWeather, © 2017

Note: Actual official high and low records may vary slightly from our data, if they occured in-between our weather recording intervals... More about our weather records

Advertising

Bamyan Weather History for the Previous 24 Hours

Scroll right to see more
 ConditionsComfort  
Time TempWeatherWind HumidityBarometerVisibility
6:00 am
Thu, Jul 27
73 °FSunny.2 mph61%29.53 "Hg10 mi
5:00 am73 °FSunny.5 mph57%29.50 "Hg10 mi
4:30 am72 °FClear.7 mph57%29.50 "Hg10 mi
4:00 am73 °FClear.5 mph47%29.50 "Hg10 mi
3:30 am73 °FClear.5 mph47%29.47 "Hg10 mi
3:00 am72 °FClear.2 mph61%29.47 "Hg10 mi
2:30 am77 °FClear.2 mph42%29.47 "Hg10 mi
1:30 am79 °FClear.5 mph42%29.47 "Hg10 mi
12:30 am81 °FClear.5 mph42%29.45 "Hg10 mi
11:30 pm
Wed, Jul 26
81 °FClear.No wind42%29.45 "Hg10 mi
11:00 pm82 °FClear.No wind42%29.45 "Hg10 mi
10:00 pm84 °FClear.No wind45%29.45 "Hg10 mi
9:30 pm86 °FClear.2 mph35%29.45 "Hg10 mi
9:00 pm88 °FClear.2 mph29%29.45 "Hg10 mi
8:30 pm86 °FClear.No wind31%29.45 "Hg10 mi
8:00 pm90 °FClear.2 mph29%29.45 "Hg10 mi
7:30 pm113 °FClear.2 mph12%29.45 "Hg10 mi
7:00 pm99 °FSunny.2 mph25%29.45 "Hg10 mi
6:30 pm104 °FSunny.2 mph12%29.45 "Hg10 mi
6:00 pm104 °FSunny.2 mph12%29.45 "Hg10 mi
5:00 pm106 °FPassing clouds.5 mph12%29.45 "HgN/A
4:30 pm108 °FPassing clouds.5 mph8%29.45 "HgN/A
4:00 pm108 °FPassing clouds.7 mph8%29.45 "HgN/A
3:30 pm109 °FPassing clouds.5 mph10%29.47 "HgN/A
3:00 pm109 °FPassing clouds.5 mph8%29.47 "HgN/A
2:30 pm108 °FPassing clouds.7 mph12%29.47 "HgN/A
2:00 pm108 °FPassing clouds.7 mph10%29.47 "HgN/A
1:30 pm108 °FPassing clouds.7 mph10%29.50 "HgN/A
1:00 pm106 °FPassing clouds.7 mph11%29.50 "HgN/A
12:30 pm106 °FPassing clouds.5 mph11%29.50 "HgN/A
12:00 pm104 °FPassing clouds.5 mph12%29.53 "HgN/A
11:00 am100 °FPassing clouds.5 mph15%29.53 "HgN/A
10:30 am99 °FSunny.2 mph18%29.53 "Hg10 mi
10:00 am95 °FPassing clouds.5 mph22%29.53 "HgN/A
9:30 am93 °FSunny.2 mph28%29.53 "Hg10 mi
9:00 am91 °FSunny.2 mph28%29.53 "Hg10 mi
8:30 am88 °FSunny.2 mph31%29.53 "Hg10 mi
8:00 am86 °FSunny.2 mph35%29.53 "Hg10 mi
7:30 am84 °FSunny.2 mph40%29.53 "Hg10 mi
7:00 am79 °FSunny.2 mph58%29.53 "Hg10 mi
Weather by CustomWeather, © 2017

See weather overviewHow to use our weather pages